Temp
13 13 13 13 13 13 13 13 13 13 13 13 13 13 13 13 13 13 13 13 14 14 14 13 13 13 13 12 12 12 12 12 12 11 11 11 11 11 11 11 10 10 10 9 9 9 9 9 9 9 9 8 8 8 8 8 8 8 8 8 8 8 8 8 8 7 7 7 7
13 13 13 13 13 13 13 13 13 13 14 14 14 14 14 13 13 13 13 13 14 14 13 13 13 13 13 13 12 12 12 12 11 11 11 11 11 11 11 10 10 10 10 9 9 9 9 9 9 9 9 8 8 8 8 8 8 8 8 8 7 7 7 7 7 7 7 7 6
13 13 13 13 13 13 13 13 13 14 14 14 14 14 14 14 13 13 14 14 14 13 13 13 13 13 13 13 12 12 12 11 11 11 10 10 10 10 10 10 10 10 9 9 9 9 9 9 9 9 8 8 8 8 8 8 8 8 7 7 7 7 7 7 6 6 6 6 6
13 13 13 13 13 13 13 14 14 14 14 14 14 13 13 13 13 13 13 13 13 13 13 13 13 13 13 13 12 12 12 11 11 10 10 10 10 10 10 10 10 9 9 9 8 8 8 8 9 8 8 8 8 8 8 8 7 7 7 7 7 6 6 6 6 6 6 6 6
13 13 13 13 14 14 14 14 14 14 14 14 14 13 13 13 13 13 13 13 13 13 13 13 13 13 13 12 12 12 11 11 11 11 10 10 10 10 10 10 10 9 9 8 8 8 8 8 8 8 8 8 7 7 7 7 7 7 7 6 6 6 6 6 6 5 5 5 5
13 13 14 14 14 14 14 14 14 14 14 14 14 13 13 13 13 13 13 13 13 13 13 13 13 13 13 12 12 12 11 11 11 11 11 10 10 10 10 10 9 9 9 8 8 8 8 8 8 8 8 7 7 7 7 7 7 6 6 6 5 5 5 5 5 5 5 5 5
13 13 14 14 14 14 14 14 14 14 14 14 14 13 13 13 13 13 13 13 13 13 13 13 13 12 12 12 12 12 12 11 11 11 11 10 10 10 9 9 9 9 9 8 8 8 8 8 8 7 7 7 7 7 7 6 6 6 6 5 5 5 5 5 5 4 4 4 4
14 14 14 14 14 14 14 14 14 13 13 13 13 13 13 13 13 13 13 13 13 13 13 12 12 12 12 12 12 12 12 11 11 11 11 10 10 10 9 9 9 9 9 8 8 8 8 8 8 7 7 7 7 6 6 6 6 6 5 5 5 4 4 4 4 4 4 4 4
14 14 14 14 14 14 14 14 13 13 13 13 13 13 13 13 13 13 13 13 13 13 12 12 12 12 12 12 12 12 12 12 11 11 11 10 10 10 9 9 9 9 9 8 8 8 8 8 8 8 7 7 7 6 6 6 6 6 5 5 4 4 4 4 4 4 4 4 4
14 14 14 14 14 14 14 14 13 13 13 13 13 13 13 13 13 13 13 13 13 13 12 12 12 12 12 12 12 12 12 12 11 11 11 10 10 9 9 9 8 8 8 8 8 8 8 8 8 8 8 7 7 6 6 6 6 5 5 4 4 5 5 4 4 4 4 4 4
14 14 14 14 14 14 14 14 13 13 13 13 13 13 13 13 13 13 13 13 13 12 12 12 12 12 12 12 12 11 11 11 11 11 11 10 10 9 9 8 8 8 8 8 8 8 8 8 8 8 8 7 6 6 6 5 5 5 5 5 5 5 5 4 4 4 3 4 4
14 14 14 14 14 14 14 14 13 13 13 13 13 13 13 13 13 13 13 13 13 12 12 12 12 12 12 12 12 11 11 11 11 11 11 10 10 9 9 8 8 7 7 7 7 7 8 8 8 8 7 7 6 6 5 5 5 5 5 6 6 5 5 4 4 3 3 4 4
14 14 14 14 14 14 14 14 14 13 13 13 13 13 13 13 13 13 13 13 13 13 12 12 12 12 12 12 11 11 11 11 11 10 10 10 9 9 8 8 7 7 7 6 6 7 7 7 7 7 7 6 6 6 5 5 5 6 6 6 5 5 4 4 3 3 3 3 3
15 14 14 14 14 14 14 14 14 14 13 13 13 13 13 13 13 13 13 13 13 12 12 12 12 12 11 11 11 11 11 11 10 10 10 10 9 9 8 8 7 7 6 6 6 6 7 7 7 7 7 6 6 6 5 5 6 6 6 5 5 5 4 4 3 3 3 3 3
15 14 14 14 14 14 14 14 14 14 14 13 13 13 13 13 12 12 12 12 12 12 12 12 12 11 11 11 11 11 11 11 10 10 10 9 9 9 8 8 8 7 6 6 6 6 6 7 6 6 6 6 6 6 6 6 6 6 6 5 5 4 4 3 3 3 3 3 3
15 14 14 14 14 14 14 14 14 14 14 14 13 13 13 13 12 12 12 12 12 12 12 12 12 11 11 11 11 10 10 10 10 10 9 9 9 9 9 8 8 7 7 6 6 6 6 6 6 6 6 6 6 6 6 6 6 6 5 5 4 4 3 3 3 2 3 3 3
15 15 14 14 14 14 14 14 14 14 14 14 14 13 13 13 12 12 12 12 12 12 12 12 11 11 11 11 10 10 10 10 10 9 9 9 9 9 9 8 8 8 7 7 6 6 6 6 6 6 6 6 7 7 7 6 6 5 5 4 4 3 3 3 3 2 3 3 3
15 15 14 14 14 14 14 14 13 13 14 14 14 14 13 13 13 12 12 12 12 12 12 11 11 11 11 11 10 10 10 10 9 9 9 9 9 9 9 8 8 8 7 7 6 6 6 6 5 5 6 6 7 7 6 6 5 4 4 4 3 3 3 3 3 3 3 3 3
15 15 14 14 14 14 14 14 13 14 14 14 14 13 13 13 13 13 12 12 12 12 12 11 11 11 10 10 10 10 10 10 9 9 9 9 9 9 8 8 8 7 7 6 6 6 6 5 5 6 6 6 6 6 5 5 4 4 4 4 3 3 3 3 3 3 3 3 3
15 15 15 14 14 14 14 14 13 13 14 14 13 13 13 13 13 13 12 12 12 12 11 11 11 11 10 10 10 10 10 9 9 9 9 9 8 8 8 8 7 7 6 6 6 5 5 5 5 6 6 6 5 5 5 4 4 3 3 3 3 3 3 3 3 3 3 3 3
16 15 15 15 14 14 14 13 13 13 13 13 13 13 13 13 13 13 12 12 12 12 11 11 11 11 10 10 10 10 9 9 9 9 8 8 8 8 8 7 7 6 6 5 5 5 5 5 5 5 5 5 5 4 4 4 4 3 3 3 3 3 3 3 3 3 3 3 3
16 15 15 15 14 14 14 13 13 13 13 13 13 13 13 13 13 12 12 12 12 11 11 11 11 11 11 10 10 10 9 9 9 8 8 8 8 7 7 7 6 6 5 5 5 5 5 5 5 5 5 5 4 4 4 4 3 3 3 3 3 3 3 3 3 3 3 3 3
16 15 15 15 14 14 13 13 13 13 13 13 13 13 13 13 12 12 12 11 11 11 11 11 11 11 10 10 10 9 9 9 8 8 8 7 7 7 6 6 6 5 5 5 5 5 5 5 5 5 4 4 4 4 4 4 3 3 3 3 3 3 3 3 3 3 3 3 3
16 15 15 15 14 14 13 13 13 13 13 13 13 13 13 12 12 12 11 11 11 11 11 11 11 10 10 10 9 9 9 9 8 8 8 7 7 6 6 6 5 5 5 5 5 4 4 5 4 4 4 4 4 3 3 4 4 3 3 3 2 2 2 2 3 3 3 3 2
16 15 15 15 14 14 13 13 13 13 13 13 13 12 12 12 12 11 11 11 11 11 11 11 10 10 10 9 9 9 9 8 8 8 7 7 6 6 6 5 5 5 5 4 4 4 4 4 4 4 4 3 3 3 3 4 4 3 3 3 2 2 2 2 2 2 2 2 2
16 15 15 15 14 14 14 13 13 13 13 12 12 12 12 12 11 11 11 11 11 11 10 10 10 10 10 9 9 9 8 8 8 7 7 7 6 6 5 5 5 5 5 4 4 4 4 4 4 4 3 3 3 3 4 4 3 3 3 3 2 2 2 2 2 2 2 2 2
16 15 15 14 14 14 14 14 13 13 13 12 12 12 12 11 11 11 11 11 10 10 10 10 10 10 9 9 9 8 8 8 7 7 7 6 6 6 5 5 5 5 5 4 4 4 4 4 3 3 3 3 3 3 3 3 3 3 3 2 2 2 2 2 2 2 2 2 2
16 15 15 14 13 13 13 13 13 13 13 12 12 12 11 11 11 11 10 10 10 10 10 10 10 10 9 9 8 8 8 7 7 7 6 6 6 5 5 5 5 5 5 4 4 4 3 3 3 3 3 3 3 3 3 3 3 3 2 2 2 2 2 2 2 2 2 2 2
16 15 15 14 13 12 12 12 12 13 12 12 12 12 11 11 11 10 10 10 10 10 10 10 9 9 9 9 8 8 8 7 7 7 6 6 6 5 5 5 5 5 5 4 4 4 3 3 3 3 3 3 3 3 3 3 3 2 2 2 2 2 2 2 2 2 2 2 2
16 15 15 14 13 12 12 11 11 12 12 12 12 11 11 10 10 10 10 10 10 10 10 9 9 9 9 8 8 8 7 7 7 6 6 6 6 5 5 5 5 5 4 4 4 3 3 3 3 3 3 3 3 3 2 2 2 2 2 2 2 2 2 2 2 2 2 2 2
16 15 14 14 13 12 12 11 11 11 12 12 11 11 11 10 10 10 10 10 10 10 10 9 9 9 9 8 8 8 7 7 7 6 6 6 6 6 5 5 5 5 4 4 4 4 3 3 3 3 3 3 3 2 2 2 2 2 2 2 2 2 2 2 2 2 2 2 2
15 15 14 14 13 12 12 11 11 11 11 11 11 11 10 10 10 10 10 10 10 10 9 9 8 8 8 8 8 8 7 7 7 7 6 6 6 6 6 6 5 5 4 4 4 4 3 3 4 4 3 3 2 2 2 2 2 2 2 2 2 2 2 2 2 2 2 2 2
14 14 14 13 13 12 12 11 11 11 11 11 11 11 10 10 10 10 10 10 10 10 9 9 8 8 8 8 8 8 7 7 7 7 7 7 6 6 6 6 5 5 4 4 4 4 4 4 4 4 3 3 2 2 2 2 2 2 2 2 2 2 2 2 2 2 2 2 2
14 13 13 13 12 12 11 11 11 11 11 11 10 10 10 10 10 10 10 10 10 9 9 8 8 8 8 8 8 8 8 7 7 7 7 6 6 6 6 5 5 5 4 4 4 4 4 4 4 4 3 3 2 2 2 2 2 2 2 2 2 2 2 2 2 2 2 2 2
13 13 13 13 12 12 11 11 10 10 10 10 10 10 10 11 11 10 10 9 9 9 8 8 8 8 8 8 8 8 7 7 7 7 6 6 6 6 6 5 5 5 4 4 4 4 4 4 4 3 3 2 2 2 2 2 2 2 2 2 2 2 2 2 2 2 2 2 2
13 13 13 13 12 12 11 10 10 10 10 10 10 11 11 11 11 10 10 9 9 8 8 8 8 8 8 7 7 7 7 7 7 6 6 6 6 6 5 5 5 4 4 4 4 3 3 3 3 3 3 3 2 2 2 2 2 2 2 2 2 2 2 2 2 2 2 2 1
14 14 13 13 12 12 11 10 10 10 11 11 11 12 12 11 11 10 9 9 8 8 8 8 8 7 7 7 7 7 7 7 6 6 6 6 5 5 5 5 4 4 4 4 3 3 3 3 3 3 3 3 3 3 2 2 2 2 2 2 2 2 2 2 2 2 1 1 1
14 14 13 13 13 12 12 12 12 12 12 12 12 12 11 11 10 10 9 9 8 8 8 8 7 7 7 7 7 7 6 6 6 6 6 5 5 5 5 4 4 4 4 3 3 3 3 3 3 3 3 3 3 3 3 2 2 2 2 2 2 2 2 2 2 1 1 1 1
14 14 14 14 13 13 13 13 13 13 13 12 12 11 11 10 9 9 9 8 8 8 8 7 7 7 7 7 6 6 6 6 6 5 5 5 5 5 4 4 4 4 3 3 3 3 3 3 3 3 3 3 3 3 3 3 2 2 2 2 2 2 2 2 1 1 1 1 0
15 15 15 15 15 15 14 14 14 13 13 12 11 11 10 9 9 9 8 8 8 8 7 7 7 7 6 6 6 6 6 5 5 5 5 5 5 4 4 4 4 4 3 3 3 2 2 3 3 3 3 3 3 3 3 3 2 2 2 2 2 2 2 1 1 1 1 0 0
16 15 15 15 15 15 14 14 13 13 12 12 11 10 10 9 9 8 8 8 8 7 7 7 7 6 6 6 6 5 5 5 5 5 5 4 4 4 4 4 4 3 3 3 3 2 2 3 3 3 3 3 3 3 3 3 2 2 2 2 2 2 2 1 1 1 0 0 -0
Height
1507 1507 1508 1509 1510 1510 1511 1511 1512 1513 1514 1515 1515 1516 1517 1518 1518 1519 1520 1521 1521 1522 1523 1523 1524 1526 1527 1528 1529 1530 1531 1531 1531 1532 1532 1533 1534 1535 1536 1537 1538 1539 1539 1539 1540 1540 1541 1541 1542 1542 1543 1543 1544 1544 1545 1545 1545 1546 1546 1546 1546 1546 1546 1546 1546 1545 1545 1544 1544
1505 1506 1506 1507 1508 1509 1509 1510 1511 1511 1512 1513 1513 1514 1515 1516 1516 1517 1518 1519 1519 1520 1521 1522 1523 1524 1525 1526 1527 1528 1529 1529 1530 1530 1531 1531 1532 1533 1535 1536 1536 1537 1537 1537 1538 1538 1539 1539 1540 1541 1541 1541 1542 1542 1543 1543 1544 1544 1545 1545 1545 1545 1545 1545 1544 1544 1543 1543 1543
1503 1504 1505 1506 1506 1507 1507 1508 1508 1509 1510 1511 1512 1513 1513 1514 1515 1516 1516 1517 1518 1519 1520 1520 1521 1522 1524 1525 1525 1526 1526 1527 1528 1528 1529 1530 1531 1532 1533 1534 1535 1535 1536 1536 1536 1536 1537 1538 1538 1539 1539 1540 1540 1541 1541 1541 1542 1543 1543 1543 1544 1544 1544 1544 1543 1543 1542 1542 1542
1501 1502 1502 1503 1504 1504 1505 1505 1506 1507 1508 1509 1510 1511 1512 1512 1513 1514 1515 1516 1516 1517 1518 1518 1519 1521 1521 1522 1523 1524 1524 1525 1526 1527 1528 1529 1529 1530 1531 1531 1532 1533 1534 1534 1534 1535 1536 1536 1537 1538 1538 1538 1539 1539 1540 1540 1541 1541 1541 1542 1542 1543 1543 1543 1542 1542 1542 1541 1541
1499 1499 1500 1501 1501 1502 1502 1503 1504 1505 1506 1507 1508 1509 1510 1511 1511 1512 1513 1513 1514 1515 1515 1516 1517 1518 1519 1520 1521 1521 1522 1523 1524 1525 1526 1527 1527 1528 1528 1529 1530 1531 1532 1532 1532 1533 1534 1535 1536 1536 1537 1537 1537 1538 1538 1539 1539 1539 1540 1540 1541 1541 1542 1542 1542 1541 1541 1541 1540
1497 1497 1498 1498 1500 1500 1501 1501 1502 1503 1504 1505 1506 1507 1507 1508 1509 1509 1510 1510 1511 1512 1513 1514 1515 1516 1517 1518 1519 1519 1520 1521 1522 1523 1524 1525 1525 1526 1526 1527 1528 1529 1530 1531 1531 1531 1532 1533 1534 1535 1536 1536 1536 1537 1537 1537 1537 1538 1538 1539 1539 1540 1540 1541 1541 1541 1541 1540 1540
1495 1495 1496 1496 1497 1499 1499 1500 1501 1501 1502 1503 1504 1504 1505 1506 1506 1506 1507 1508 1509 1510 1511 1512 1513 1514 1514 1515 1516 1517 1518 1519 1520 1521 1521 1521 1522 1523 1524 1525 1526 1527 1528 1529 1530 1530 1531 1532 1533 1534 1534 1535 1535 1535 1536 1536 1536 1536 1536 1537 1537 1538 1538 1539 1539 1539 1539 1539 1539
1493 1493 1493 1494 1495 1496 1497 1498 1499 1500 1501 1501 1501 1502 1502 1503 1504 1504 1505 1506 1506 1507 1508 1510 1510 1511 1512 1513 1514 1515 1516 1517 1518 1518 1519 1519 1520 1521 1521 1523 1524 1526 1526 1527 1527 1528 1529 1530 1531 1532 1533 1534 1534 1534 1534 1534 1534 1535 1535 1535 1536 1536 1536 1536 1536 1537 1537 1537 1537
1491 1491 1491 1492 1493 1494 1496 1496 1497 1498 1498 1499 1499 1500 1501 1501 1502 1503 1504 1504 1505 1506 1507 1508 1508 1509 1510 1511 1511 1512 1514 1515 1516 1516 1516 1517 1517 1519 1520 1521 1522 1523 1523 1524 1524 1525 1526 1527 1528 1529 1531 1531 1531 1531 1531 1532 1532 1532 1533 1533 1533 1534 1534 1534 1534 1535 1535 1536 1536
1489 1489 1489 1490 1491 1492 1494 1495 1496 1496 1496 1497 1498 1499 1500 1500 1501 1501 1502 1502 1503 1504 1505 1506 1507 1507 1508 1508 1509 1510 1511 1512 1513 1514 1514 1515 1516 1516 1517 1518 1519 1519 1520 1520 1521 1522 1523 1523 1524 1525 1526 1526 1527 1528 1529 1529 1530 1530 1530 1530 1531 1531 1531 1532 1532 1533 1534 1534 1534
1486 1486 1486 1487 1488 1490 1491 1493 1493 1494 1495 1496 1496 1497 1498 1499 1499 1500 1500 1501 1502 1503 1503 1504 1505 1506 1506 1506 1507 1508 1509 1510 1511 1511 1512 1513 1514 1515 1515 1516 1516 1517 1517 1518 1518 1519 1520 1521 1521 1521 1522 1523 1525 1526 1527 1527 1527 1527 1527 1528 1529 1529 1530 1530 1531 1531 1532 1532 1532
1484 1484 1484 1485 1486 1487 1489 1490 1491 1492 1493 1494 1495 1495 1496 1497 1497 1498 1499 1500 1500 1501 1502 1503 1503 1504 1504 1505 1505 1506 1507 1508 1508 1509 1511 1511 1512 1513 1513 1514 1514 1515 1515 1516 1516 1517 1518 1519 1519 1520 1520 1521 1523 1524 1525 1525 1525 1525 1526 1526 1527 1527 1527 1528 1529 1530 1530 1531 1531
1482 1482 1482 1482 1483 1485 1486 1487 1489 1489 1490 1491 1492 1493 1494 1495 1496 1496 1497 1497 1498 1499 1500 1501 1501 1501 1502 1502 1503 1504 1505 1506 1506 1508 1509 1509 1510 1511 1512 1512 1512 1512 1513 1513 1514 1515 1515 1516 1517 1517 1518 1520 1521 1522 1522 1522 1523 1523 1524 1525 1525 1525 1526 1526 1527 1528 1528 1529 1529
1480 1481 1480 1480 1481 1482 1484 1485 1486 1487 1488 1489 1490 1491 1492 1493 1494 1495 1495 1496 1496 1497 1498 1499 1499 1499 1500 1501 1501 1502 1503 1504 1505 1506 1507 1508 1508 1509 1510 1510 1511 1511 1511 1511 1512 1513 1513 1514 1514 1515 1516 1517 1518 1520 1521 1521 1521 1522 1522 1523 1523 1524 1524 1525 1525 1526 1526 1527 1527
1479 1479 1478 1478 1479 1480 1481 1482 1483 1484 1485 1486 1488 1489 1490 1491 1492 1492 1493 1494 1495 1496 1496 1496 1497 1497 1498 1499 1499 1500 1501 1502 1503 1504 1505 1506 1506 1507 1508 1508 1508 1508 1509 1510 1510 1511 1511 1511 1512 1512 1513 1515 1516 1517 1519 1520 1520 1520 1521 1521 1521 1522 1522 1523 1524 1524 1525 1525 1525
1477 1477 1477 1476 1477 1477 1478 1480 1481 1482 1483 1484 1486 1487 1488 1489 1490 1491 1491 1492 1493 1493 1494 1494 1494 1495 1496 1497 1498 1499 1500 1501 1501 1502 1503 1504 1504 1505 1506 1506 1506 1506 1506 1507 1508 1508 1509 1509 1510 1510 1511 1513 1514 1516 1516 1517 1518 1518 1519 1519 1520 1521 1521 1521 1522 1522 1523 1523 1523
1475 1475 1475 1475 1475 1475 1476 1477 1478 1479 1480 1481 1483 1484 1486 1487 1488 1488 1489 1490 1490 1491 1491 1491 1492 1493 1494 1495 1496 1497 1498 1499 1500 1500 1501 1501 1502 1502 1503 1504 1504 1504 1504 1505 1506 1506 1506 1507 1508 1509 1511 1512 1513 1514 1515 1515 1516 1517 1517 1518 1518 1519 1519 1520 1520 1521 1521 1521 1522
1472 1472 1472 1472 1472 1473 1474 1474 1476 1476 1478 1479 1481 1482 1483 1484 1485 1486 1486 1487 1488 1488 1488 1489 1490 1491 1492 1492 1493 1495 1496 1497 1497 1498 1499 1500 1500 1501 1501 1502 1502 1502 1503 1503 1503 1504 1504 1505 1506 1508 1510 1511 1511 1512 1513 1514 1515 1515 1515 1516 1516 1517 1517 1518 1518 1519 1519 1520 1520
1470 1469 1469 1469 1470 1470 1471 1472 1473 1474 1476 1477 1478 1480 1481 1482 1483 1484 1485 1485 1486 1486 1486 1487 1488 1489 1490 1491 1492 1493 1494 1495 1496 1496 1497 1498 1499 1499 1500 1500 1501 1501 1501 1501 1502 1502 1503 1504 1506 1507 1508 1509 1510 1511 1511 1512 1512 1513 1513 1514 1514 1515 1516 1516 1517 1517 1518 1518 1519
1466 1466 1466 1466 1467 1468 1469 1470 1471 1472 1474 1475 1476 1477 1479 1480 1481 1482 1482 1483 1483 1484 1485 1486 1486 1487 1488 1490 1491 1491 1492 1493 1494 1495 1496 1496 1497 1497 1497 1498 1499 1499 1500 1500 1501 1502 1502 1503 1504 1505 1506 1507 1508 1509 1510 1510 1510 1511 1511 1511 1512 1513 1514 1515 1516 1516 1517 1517 1518
1463 1463 1463 1463 1464 1465 1466 1468 1469 1471 1472 1473 1474 1476 1477 1478 1479 1480 1480 1481 1482 1482 1483 1484 1485 1486 1487 1488 1489 1490 1491 1492 1493 1494 1494 1495 1495 1495 1496 1496 1497 1498 1498 1499 1500 1501 1501 1502 1502 1503 1504 1505 1506 1507 1508 1508 1508 1509 1509 1510 1511 1511 1512 1513 1514 1515 1516 1516 1516
1460 1460 1461 1461 1463 1464 1465 1466 1468 1469 1470 1471 1472 1474 1475 1476 1476 1477 1478 1480 1481 1481 1482 1483 1484 1485 1486 1487 1488 1489 1490 1490 1491 1492 1493 1493 1494 1494 1494 1495 1496 1496 1497 1498 1498 1499 1499 1500 1501 1502 1503 1505 1506 1506 1506 1506 1506 1507 1507 1508 1509 1510 1511 1512 1513 1514 1514 1515 1515
1458 1459 1460 1461 1461 1462 1464 1465 1466 1468 1469 1470 1471 1472 1473 1474 1475 1476 1477 1478 1479 1480 1481 1482 1483 1484 1485 1486 1487 1488 1489 1489 1490 1491 1491 1492 1492 1492 1493 1494 1494 1495 1496 1496 1496 1497 1497 1498 1500 1501 1503 1504 1504 1505 1505 1505 1505 1506 1506 1507 1507 1508 1509 1510 1511 1512 1513 1513 1514
1456 1458 1459 1459 1460 1461 1463 1464 1466 1467 1468 1468 1469 1470 1471 1472 1474 1475 1476 1477 1478 1479 1480 1481 1483 1484 1484 1485 1486 1487 1488 1488 1489 1490 1490 1491 1491 1491 1491 1492 1492 1493 1494 1494 1494 1495 1496 1497 1499 1501 1502 1502 1502 1502 1503 1504 1504 1504 1505 1505 1506 1507 1508 1509 1510 1511 1511 1512 1512
1455 1456 1457 1458 1459 1460 1461 1463 1465 1466 1466 1467 1468 1469 1470 1471 1473 1474 1475 1476 1476 1478 1479 1481 1482 1483 1483 1484 1485 1486 1486 1487 1488 1488 1488 1489 1489 1489 1489 1490 1490 1491 1491 1492 1493 1494 1495 1496 1498 1499 1499 1499 1500 1500 1501 1502 1503 1503 1504 1504 1505 1506 1507 1508 1508 1509 1510 1510 1511
1454 1456 1456 1457 1458 1459 1461 1462 1463 1465 1466 1466 1467 1468 1469 1471 1472 1473 1474 1475 1476 1476 1478 1480 1481 1481 1482 1483 1483 1484 1485 1486 1486 1486 1487 1487 1487 1488 1488 1488 1488 1489 1490 1491 1492 1493 1494 1495 1495 1496 1496 1497 1498 1499 1500 1501 1501 1502 1502 1503 1504 1505 1506 1506 1507 1507 1508 1509 1509
1453 1454 1455 1456 1457 1459 1460 1461 1462 1464 1465 1466 1466 1467 1468 1470 1471 1472 1473 1473 1474 1476 1477 1478 1479 1480 1480 1481 1482 1482 1483 1484 1484 1485 1486 1486 1486 1486 1486 1486 1487 1488 1489 1489 1490 1491 1492 1493 1494 1494 1495 1496 1497 1498 1499 1499 1500 1501 1501 1502 1503 1504 1504 1505 1506 1506 1506 1507 1507
1452 1452 1453 1455 1457 1459 1461 1461 1462 1463 1463 1464 1465 1466 1467 1468 1470 1471 1471 1472 1473 1474 1476 1476 1477 1478 1479 1479 1480 1481 1481 1482 1483 1483 1484 1484 1485 1485 1485 1486 1486 1486 1486 1487 1488 1489 1490 1491 1492 1493 1494 1495 1496 1497 1497 1498 1498 1499 1500 1501 1501 1502 1503 1504 1504 1505 1505 1506 1506
1451 1451 1452 1454 1456 1459 1461 1462 1462 1462 1462 1463 1464 1465 1466 1467 1468 1469 1470 1471 1472 1473 1473 1474 1475 1476 1477 1477 1478 1479 1480 1481 1481 1481 1482 1483 1483 1484 1484 1484 1485 1485 1485 1486 1487 1488 1489 1490 1491 1492 1493 1494 1495 1495 1496 1496 1497 1498 1499 1500 1500 1501 1501 1502 1503 1503 1504 1504 1505
1451 1451 1451 1452 1454 1456 1458 1460 1461 1462 1462 1463 1463 1464 1465 1466 1467 1468 1469 1470 1470 1471 1471 1472 1473 1474 1475 1476 1476 1477 1478 1479 1480 1480 1481 1481 1482 1482 1482 1482 1483 1483 1484 1485 1486 1487 1488 1489 1490 1491 1492 1493 1493 1494 1494 1495 1496 1496 1497 1498 1499 1500 1500 1501 1501 1502 1502 1502 1503
1450 1451 1451 1452 1453 1455 1456 1458 1460 1461 1462 1462 1463 1464 1465 1466 1466 1467 1468 1468 1469 1470 1470 1471 1472 1472 1473 1474 1475 1476 1476 1477 1478 1479 1479 1480 1480 1480 1481 1481 1482 1482 1483 1484 1485 1486 1486 1487 1488 1490 1491 1492 1492 1492 1493 1494 1495 1495 1496 1497 1497 1498 1499 1499 1500 1500 1501 1501 1501
1450 1451 1451 1452 1452 1454 1455 1457 1459 1460 1461 1461 1462 1463 1464 1465 1466 1466 1467 1468 1468 1469 1469 1469 1470 1471 1472 1473 1474 1474 1475 1476 1476 1477 1477 1478 1479 1479 1480 1480 1481 1481 1482 1483 1484 1484 1485 1486 1487 1488 1489 1490 1491 1491 1492 1493 1494 1494 1495 1496 1496 1497 1497 1498 1498 1498 1499 1499 1500
1449 1450 1451 1451 1452 1453 1455 1456 1458 1459 1460 1461 1461 1462 1463 1465 1466 1466 1467 1467 1467 1467 1467 1467 1468 1469 1471 1471 1472 1473 1474 1474 1475 1475 1476 1476 1477 1478 1479 1479 1480 1480 1481 1482 1482 1483 1484 1485 1486 1487 1488 1489 1490 1490 1491 1492 1493 1493 1494 1495 1495 1496 1496 1496 1496 1497 1497 1498 1498
1447 1448 1450 1451 1452 1453 1455 1456 1458 1459 1460 1460 1461 1461 1462 1463 1464 1465 1465 1465 1465 1465 1465 1466 1467 1468 1469 1470 1471 1471 1472 1473 1474 1474 1475 1476 1476 1477 1478 1478 1479 1479 1480 1481 1481 1481 1482 1483 1484 1486 1486 1487 1488 1489 1490 1491 1491 1492 1493 1493 1494 1494 1494 1495 1495 1496 1496 1496 1497
1445 1447 1448 1450 1451 1453 1455 1456 1458 1459 1460 1460 1460 1461 1461 1462 1462 1462 1462 1462 1463 1463 1465 1466 1466 1467 1468 1469 1470 1471 1471 1472 1473 1473 1474 1474 1475 1476 1476 1477 1477 1478 1479 1479 1480 1480 1481 1482 1483 1484 1485 1486 1487 1488 1489 1490 1490 1491 1491 1492 1492 1492 1493 1493 1494 1494 1495 1495 1495
1444 1445 1447 1449 1451 1452 1454 1456 1457 1459 1460 1460 1460 1460 1460 1459 1459 1459 1460 1460 1461 1462 1464 1465 1466 1466 1467 1468 1469 1469 1470 1471 1472 1472 1473 1473 1474 1475 1475 1476 1476 1477 1477 1478 1478 1479 1479 1480 1481 1483 1484 1485 1486 1487 1488 1488 1489 1489 1490 1490 1491 1491 1491 1492 1493 1493 1493 1494 1494
1443 1445 1446 1447 1449 1451 1453 1456 1457 1458 1458 1459 1459 1458 1457 1456 1457 1457 1458 1459 1460 1461 1462 1463 1464 1464 1465 1466 1467 1468 1469 1470 1471 1471 1472 1472 1473 1473 1474 1474 1475 1475 1476 1476 1477 1477 1478 1479 1480 1481 1483 1484 1485 1486 1486 1487 1487 1488 1488 1489 1489 1490 1490 1491 1491 1492 1492 1492 1492
1443 1444 1446 1447 1449 1451 1452 1454 1455 1456 1456 1455 1455 1455 1454 1455 1455 1455 1456 1457 1458 1459 1460 1461 1461 1462 1463 1464 1465 1466 1467 1469 1470 1470 1471 1471 1471 1472 1472 1473 1473 1474 1475 1475 1476 1476 1477 1478 1479 1481 1482 1483 1484 1484 1485 1485 1486 1486 1486 1487 1488 1488 1489 1490 1490 1490 1491 1491 1491
1443 1444 1446 1446 1447 1448 1448 1449 1451 1451 1451 1452 1452 1452 1452 1453 1453 1453 1454 1455 1456 1457 1458 1459 1460 1461 1462 1463 1464 1465 1466 1467 1468 1469 1470 1470 1470 1471 1471 1472 1472 1473 1473 1474 1474 1475 1476 1477 1479 1480 1481 1482 1482 1483 1483 1484 1484 1485 1485 1486 1486 1487 1488 1488 1488 1489 1489 1489 1489
1442 1443 1443 1443 1443 1442 1442 1443 1444 1446 1447 1448 1449 1450 1451 1451 1451 1452 1453 1454 1455 1456 1457 1458 1459 1460 1461 1462 1463 1464 1465 1466 1467 1468 1468 1469 1469 1470 1470 1471 1471 1471 1472 1473 1474 1475 1476 1477 1478 1479 1480 1481 1481 1482 1482 1483 1483 1484 1484 1485 1485 1486 1486 1486 1487 1487 1487 1487 1487
1440 1440 1440 1440 1439 1438 1438 1439 1440 1442 1444 1446 1447 1448 1449 1450 1451 1451 1452 1453 1454 1455 1456 1457 1458 1459 1460 1461 1462 1463 1464 1465 1466 1466 1467 1468 1468 1469 1469 1469 1470 1471 1471 1472 1473 1474 1475 1476 1477 1478 1479 1480 1480 1481 1481 1481 1482 1482 1482 1483 1484 1484 1485 1485 1485 1485 1484 1484 1484
Wind_Speed
39 38 37 37 37 37 36 36 35 33 33 32 32 32 33 33 33 33 33 33 33 34 34 35 36 37 37 38 38 38 39 39 40 40 39 39 38 36 34 32 30 29 29 29 30 30 30 29 27 25 23 21 20 18 17 16 15 14 13 12 12 11 11 10 10 10 10 10 10
40 39 39 38 38 38 37 37 36 35 34 33 33 32 32 33 33 33 33 33 33 33 34 34 35 35 35 35 36 37 38 39 40 40 40 39 38 37 36 34 32 30 30 30 31 31 31 29 28 26 24 22 21 20 18 17 16 14 13 12 11 11 10 10 10 10 10 10 10
41 41 40 39 39 39 39 38 38 37 36 35 34 34 33 33 33 33 32 32 32 33 33 34 34 33 33 33 34 36 38 39 40 40 40 39 39 38 37 36 33 32 31 31 31 32 31 30 29 27 25 23 22 21 19 18 16 14 13 12 11 10 10 10 10 10 10 11 11
42 42 41 41 41 41 40 40 39 38 37 36 36 35 35 34 34 33 33 32 33 33 33 33 33 32 32 32 33 35 37 38 39 39 39 39 38 39 38 37 35 33 32 32 32 32 31 31 29 28 26 24 23 21 19 18 16 14 13 11 11 10 10 10 10 11 11 11 11
43 43 43 42 42 41 41 40 39 38 38 37 37 37 37 36 35 35 34 34 34 34 34 33 33 32 32 32 33 34 35 36 37 37 37 37 38 39 39 39 37 34 33 32 32 32 31 31 30 28 26 25 23 21 20 18 16 14 12 11 11 10 10 10 11 11 12 12 12
43 44 44 43 42 42 42 41 40 40 39 39 39 39 39 38 37 37 37 37 36 35 34 33 33 33 33 33 34 34 34 34 34 33 34 35 38 39 40 39 38 35 34 32 32 31 31 31 30 28 27 25 23 22 20 18 16 14 12 11 11 10 9 10 11 12 13 13 12
44 44 44 44 43 43 42 42 42 41 41 41 41 41 40 40 39 39 38 38 37 36 35 35 34 34 34 34 34 34 33 33 32 32 32 34 37 39 40 39 38 36 34 33 31 31 30 30 30 29 27 26 24 23 21 19 17 15 13 11 11 10 10 11 12 13 13 13 13
43 44 44 44 44 43 43 43 43 43 43 43 43 42 42 41 41 40 39 39 38 38 37 36 35 35 35 35 34 34 33 32 32 32 33 34 36 38 38 38 37 36 35 34 32 31 31 31 31 29 28 27 26 24 23 20 18 16 14 12 11 11 12 13 13 14 14 13 13
42 43 44 44 44 43 43 43 44 44 44 44 44 43 43 42 41 41 40 40 39 38 37 36 36 35 35 35 35 34 33 32 32 33 33 34 35 35 36 36 36 36 36 35 35 34 34 33 32 31 30 29 28 27 24 22 20 18 15 13 12 13 15 16 15 15 14 14 14
42 43 44 44 44 44 43 43 44 44 45 45 45 44 43 43 42 42 41 40 39 38 38 37 36 36 36 36 35 34 33 33 33 33 33 33 33 33 34 34 35 36 36 36 36 36 35 35 34 34 33 33 31 28 26 24 22 19 17 16 16 18 19 18 16 15 15 15 15
43 44 44 45 45 44 44 43 44 44 45 45 45 45 44 43 43 42 41 41 40 39 38 38 37 37 37 37 36 35 34 34 34 34 33 32 32 32 32 33 34 36 37 37 37 36 35 36 36 36 35 34 31 29 26 25 23 22 20 20 21 21 20 18 16 15 15 15 15
44 44 45 45 45 45 44 44 44 45 45 45 45 45 45 44 43 42 42 41 41 40 39 38 38 38 38 38 37 36 35 35 35 34 33 32 32 32 32 32 34 35 36 37 37 36 35 36 36 36 35 34 31 29 27 26 25 24 23 23 23 22 19 16 15 15 15 15 15
44 44 45 45 45 45 45 44 45 45 45 45 45 45 45 44 43 43 42 42 41 40 39 39 39 39 39 39 38 37 37 36 35 34 33 32 32 32 32 32 33 34 36 37 38 37 36 36 37 37 36 34 32 30 29 28 27 26 25 24 24 21 18 15 14 14 15 15 15
44 44 45 45 46 45 45 45 45 45 45 45 44 44 44 44 43 43 43 43 42 41 40 40 40 41 40 40 39 39 38 37 36 35 34 34 33 32 32 31 32 34 35 37 38 38 38 37 38 38 37 35 33 32 31 29 29 27 26 25 23 20 17 14 14 14 15 15 16
44 44 45 46 46 46 46 46 45 45 45 44 44 44 43 43 43 43 43 43 42 41 41 41 42 42 41 41 40 40 39 38 37 36 35 35 34 33 32 31 31 33 35 37 38 39 39 39 39 38 37 35 34 32 31 31 30 29 27 25 22 18 15 13 13 14 15 16 17
44 44 45 45 46 46 46 46 46 45 44 44 43 43 43 43 43 43 43 43 42 42 42 43 43 43 42 41 41 40 40 39 37 37 36 36 35 34 33 31 31 33 35 37 39 40 41 41 40 39 37 34 33 32 32 32 31 30 27 23 19 16 14 14 14 14 15 16 17
44 44 45 45 46 46 46 46 46 45 44 43 43 43 43 43 43 43 43 43 43 44 44 44 44 44 43 43 42 41 40 39 38 37 37 37 36 35 33 31 31 32 35 37 40 41 42 42 40 38 36 33 32 32 33 33 31 29 25 21 18 16 16 15 15 14 15 16 18
44 45 46 46 46 46 46 46 45 45 44 43 43 43 43 42 42 42 42 42 43 44 45 45 45 45 44 44 43 42 41 40 39 38 38 37 36 35 33 31 31 32 35 38 41 42 42 42 40 38 35 33 32 33 33 32 30 27 24 21 19 18 17 16 15 14 15 17 18
44 45 46 47 46 46 46 45 45 44 43 43 42 42 42 41 41 42 42 42 43 44 45 45 45 45 45 45 44 43 42 41 40 39 38 37 35 34 32 31 31 33 36 39 41 42 42 41 40 38 36 34 33 33 33 31 29 27 24 23 21 19 18 16 15 15 16 17 18
45 46 47 47 47 47 46 45 45 44 43 42 41 41 40 40 40 41 42 42 42 43 44 44 45 45 45 44 44 43 42 41 40 39 38 36 35 33 32 31 31 34 37 40 41 41 41 41 40 39 38 36 35 34 33 31 29 27 25 24 22 20 18 16 15 16 17 17 17
46 47 47 48 47 47 46 45 44 43 42 42 41 40 39 39 39 40 41 41 41 42 42 43 44 44 44 44 44 43 43 41 40 39 37 35 34 33 32 32 32 35 38 40 41 41 41 41 41 40 39 37 35 35 33 31 29 27 26 24 22 20 18 16 16 17 17 17 17
46 46 47 47 46 46 45 44 43 42 41 41 40 39 38 38 39 39 40 39 40 40 41 41 41 41 42 42 43 43 42 41 40 38 36 35 34 33 32 32 33 36 38 40 41 41 41 41 41 40 38 36 36 35 34 32 29 27 26 24 22 20 18 17 17 17 18 18 18
45 45 45 45 45 44 44 43 42 41 41 40 39 38 38 37 37 38 38 38 38 38 38 38 37 38 38 39 40 41 41 41 39 38 36 34 33 32 32 33 34 37 39 40 41 42 42 42 40 38 37 36 36 36 35 32 30 27 26 24 22 21 19 19 19 19 19 18 18
44 44 44 44 44 43 42 42 41 40 40 39 39 38 37 37 36 36 36 36 36 36 35 35 34 35 36 37 38 39 40 40 39 37 36 34 33 33 33 34 36 38 39 41 42 42 42 41 39 38 37 37 37 37 35 32 29 26 25 24 23 22 21 21 20 20 20 20 19
43 42 42 43 42 42 41 40 40 39 39 38 38 37 36 35 35 34 34 34 34 33 33 32 32 32 34 35 37 38 39 39 39 38 36 35 34 34 35 36 37 39 40 41 41 41 41 40 40 39 39 38 37 35 33 29 26 24 23 23 23 23 23 23 22 22 22 21 20
40 40 40 41 40 40 39 39 38 38 37 37 36 36 35 34 33 33 33 33 32 32 30 30 30 31 32 34 35 36 37 38 38 37 36 35 35 35 36 38 38 39 40 41 41 41 41 41 40 40 39 38 36 33 30 26 24 23 23 23 23 24 24 24 24 23 23 22 21
38 38 38 38 37 36 36 37 37 36 36 36 35 35 34 33 32 32 32 32 31 30 29 29 29 30 31 32 34 35 36 37 37 37 36 36 36 37 38 39 39 39 40 41 41 41 41 41 40 39 38 36 34 30 27 24 23 22 23 23 23 24 24 25 24 24 23 22 22
38 38 37 35 34 32 32 34 34 35 35 35 35 34 33 32 32 31 31 31 30 30 29 29 29 29 30 31 33 34 35 36 36 36 36 36 37 38 39 39 39 40 41 41 42 42 41 41 40 39 37 35 32 28 25 23 23 22 23 23 23 24 24 24 24 23 23 23 22
37 37 37 35 33 31 29 30 32 34 35 34 34 33 32 31 31 30 30 30 30 30 30 30 30 30 31 31 32 33 34 35 36 36 36 37 38 39 40 40 41 41 41 41 41 41 41 41 40 39 36 33 29 26 24 23 23 23 23 23 24 24 24 24 23 23 23 23 23
35 36 35 33 31 29 28 28 30 33 34 34 33 32 31 30 30 30 30 30 30 31 31 31 31 31 32 32 32 33 34 35 35 36 37 38 39 40 41 42 42 41 41 40 40 40 40 40 40 37 34 30 27 25 24 24 24 24 24 24 24 24 24 24 24 24 24 24 24
34 33 32 31 30 29 28 28 29 31 33 33 32 31 30 30 29 29 29 30 30 31 31 32 32 32 32 32 32 33 34 34 35 36 37 39 40 41 42 43 42 41 40 40 39 39 39 39 37 34 31 27 26 25 25 25 25 25 25 25 25 25 25 25 25 25 25 25 26
31 31 30 29 28 27 26 26 27 29 31 31 30 30 29 29 29 29 28 29 30 31 32 33 33 33 32 31 32 32 33 34 35 36 37 38 39 40 41 42 42 41 40 39 39 39 38 37 34 30 27 26 26 26 26 26 26 26 26 26 26 26 25 25 25 26 26 27 27
28 26 25 23 23 22 22 23 24 27 29 29 29 29 28 28 27 27 28 29 31 33 34 34 33 32 32 32 32 32 33 34 34 35 36 37 38 38 40 41 41 41 40 40 39 38 37 34 30 27 25 26 26 27 27 27 27 28 28 28 27 27 26 26 26 27 27 27 26
24 22 21 19 19 19 21 22 24 25 27 28 28 29 28 27 27 27 29 31 33 34 34 33 32 31 31 31 31 31 32 32 33 34 35 35 36 36 38 39 40 40 39 39 38 37 35 32 27 25 25 26 27 28 28 28 29 30 30 30 29 28 28 27 27 27 27 27 26
25 23 21 20 20 21 22 24 24 24 25 25 26 27 27 26 26 28 30 32 33 33 32 31 30 30 30 30 30 30 30 31 32 33 34 34 34 35 35 36 37 37 37 37 36 35 32 28 25 24 25 27 28 29 29 30 31 31 32 32 31 30 29 29 28 28 27 27 26
26 25 23 22 21 21 21 21 21 21 21 22 23 24 26 27 28 30 31 32 32 31 30 29 29 29 29 29 29 29 29 29 30 31 32 32 33 33 33 34 34 35 34 34 33 32 29 26 24 24 26 28 29 30 30 31 32 33 33 33 33 32 31 30 29 28 27 26 26
26 25 24 22 19 17 16 15 16 17 19 22 25 27 29 29 30 30 31 31 30 30 29 29 28 29 29 29 29 28 28 27 28 28 29 30 30 31 31 31 32 32 31 31 30 28 25 24 24 25 26 28 29 30 30 32 33 34 34 34 34 33 31 30 29 28 27 26 25
24 23 21 19 17 15 14 15 17 21 25 28 30 31 30 30 30 30 30 29 29 28 28 28 28 28 28 28 28 27 26 26 26 26 26 27 27 28 28 29 29 29 28 27 26 24 23 23 23 25 26 28 29 29 30 32 33 34 35 35 34 33 31 29 28 27 27 26 26
20 19 18 17 17 18 19 22 25 28 31 32 32 31 30 29 28 28 28 27 27 27 27 27 27 27 27 27 26 26 25 25 24 24 23 24 24 24 25 26 26 25 25 24 23 22 22 22 23 25 26 26 27 27 29 30 32 34 34 34 33 32 30 28 27 27 26 26 25
19 18 19 21 23 24 26 29 31 32 33 33 32 31 29 28 27 27 26 26 25 25 26 26 26 26 26 25 25 25 24 23 23 22 22 22 21 22 22 23 23 22 22 21 21 21 22 22 23 24 25 24 24 25 26 28 30 32 33 33 32 30 29 28 27 26 26 25 25
21 22 24 25 27 28 29 30 30 31 31 31 30 29 28 28 27 26 26 25 25 24 25 25 25 25 24 24 24 24 23 22 22 21 20 20 20 20 20 21 21 20 20 20 21 21 22 22 23 23 23 23 23 23 24 26 28 30 31 31 30 29 28 27 26 26 25 25 25
Wind_Direction
215 217 217 217 216 217 219 222 224 225 224 223 221 220 219 219 220 223 225 226 228 229 229 229 228 228 227 226 226 227 229 230 231 231 232 232 232 230 229 227 226 226 226 226 225 225 225 224 223 220 219 217 217 217 217 217 219 222 225 228 231 234 238 242 246 249 250 251 251
215 218 219 218 218 218 220 222 224 225 226 225 225 224 223 222 222 223 225 227 228 229 229 229 229 229 229 228 229 229 230 229 229 229 229 230 231 231 230 228 227 226 226 226 226 227 227 227 224 221 219 218 217 217 218 219 221 223 227 230 233 236 241 245 250 253 255 256 256
215 217 219 219 218 218 219 221 223 225 226 226 226 226 226 225 225 225 226 227 229 229 230 230 230 230 230 229 230 230 229 229 228 228 228 229 230 231 231 230 228 227 227 227 227 228 229 229 226 223 220 219 219 219 220 221 223 225 227 230 234 238 243 249 253 255 257 256 256
215 217 218 219 219 219 220 222 224 226 227 227 226 226 226 227 227 227 228 229 229 230 230 231 231 231 230 230 229 229 229 228 228 228 229 230 231 232 233 231 229 228 227 227 227 229 231 230 228 225 223 221 220 221 222 223 224 225 227 230 234 239 246 252 256 257 257 255 257
215 217 219 220 221 222 223 225 226 227 227 227 226 225 225 226 226 227 228 229 229 231 232 233 232 231 230 230 230 229 229 228 228 228 230 232 233 234 234 232 230 229 228 227 228 230 233 232 229 227 225 223 223 223 224 224 223 223 225 229 234 241 250 256 258 259 257 255 256
214 217 220 222 223 223 224 226 227 228 228 227 225 225 225 225 225 226 227 229 231 232 233 232 231 231 231 230 230 230 230 229 228 228 230 232 233 234 233 232 231 230 229 228 229 231 234 233 230 228 227 225 224 224 223 222 220 220 222 227 234 243 253 259 260 259 256 255 256
214 217 220 222 223 223 224 225 226 227 227 227 226 226 226 226 226 227 228 230 231 231 231 230 230 230 231 231 231 231 231 230 229 230 231 232 232 232 232 232 232 231 231 231 231 233 235 235 231 228 227 226 225 224 222 219 217 217 219 226 236 246 255 260 260 257 254 254 256
214 217 220 222 223 223 223 224 224 225 226 226 227 227 228 228 228 228 229 230 230 230 229 229 229 230 232 232 233 233 232 231 231 231 232 232 232 231 232 232 233 233 234 234 236 238 239 236 232 230 229 228 226 224 221 218 215 215 218 225 235 246 255 260 258 254 251 253 256
213 216 220 222 223 223 223 223 224 224 225 226 228 228 229 229 229 229 230 229 230 230 230 229 229 231 232 233 234 234 234 233 233 233 233 233 232 231 231 231 232 233 234 235 238 240 240 237 234 233 234 232 228 224 221 218 215 214 217 224 236 249 258 262 257 251 248 252 254
212 215 218 221 223 223 223 223 224 225 226 227 228 228 228 229 230 231 231 232 232 231 230 230 231 232 233 233 234 235 235 235 235 235 235 234 232 231 230 231 231 232 233 235 239 241 241 238 236 236 236 233 227 223 220 218 215 214 218 229 244 256 262 261 253 248 247 251 254
212 215 218 220 222 223 223 223 223 225 226 227 227 228 228 229 230 231 233 233 233 232 231 232 233 234 234 235 235 235 236 237 237 237 236 234 232 231 230 231 232 232 233 235 240 242 242 238 237 236 235 230 225 221 218 216 214 216 224 238 251 259 261 256 249 245 247 251 253
213 215 217 220 222 222 222 222 223 224 225 226 227 227 228 229 230 232 232 233 233 233 234 235 236 236 236 236 236 236 236 236 237 237 236 234 231 230 231 232 233 234 234 233 236 238 239 238 236 235 232 227 222 219 217 215 217 223 233 244 253 258 257 250 244 244 248 250 251
212 214 217 219 221 221 222 222 223 224 225 226 226 227 228 229 231 232 232 233 234 235 236 236 237 237 237 236 236 236 236 236 236 237 235 232 230 230 232 233 234 234 233 232 232 233 234 235 235 233 230 226 221 218 216 218 223 230 239 248 254 255 252 244 241 243 246 248 249
212 213 215 218 220 221 221 222 223 224 225 226 227 227 228 229 230 231 232 234 235 236 236 236 236 236 236 236 237 237 236 236 236 235 234 232 231 232 234 236 236 234 231 230 229 229 230 231 232 232 229 224 220 218 219 224 230 236 243 249 253 252 247 240 238 240 243 246 248
210 212 214 217 219 220 221 222 223 224 226 227 227 227 226 227 228 230 231 233 235 235 235 235 234 234 235 235 237 237 237 237 236 235 233 232 232 235 238 239 237 233 230 228 228 228 229 230 230 229 227 223 221 222 226 231 235 238 243 249 251 248 240 234 234 237 240 244 247
209 211 213 215 218 220 221 221 223 224 226 227 227 227 226 226 227 228 230 231 233 234 234 234 234 234 234 234 235 236 236 236 236 235 234 233 235 238 241 241 238 233 229 227 226 228 229 230 229 228 227 225 226 230 234 235 236 238 243 247 246 240 232 229 231 235 239 243 247
208 210 212 214 216 219 221 222 222 223 225 227 228 228 227 226 226 228 229 230 231 232 233 234 234 234 234 234 234 234 235 235 235 235 235 236 238 241 243 243 240 234 229 227 226 227 228 228 228 228 228 230 234 237 238 236 236 238 242 243 239 233 228 228 230 234 239 242 245
208 210 212 214 216 218 220 221 222 223 225 227 229 229 227 226 227 228 229 230 231 231 232 233 233 233 233 234 234 234 234 234 235 235 236 238 241 244 246 245 240 234 229 227 226 226 227 226 226 227 229 234 238 239 237 234 235 238 241 239 237 233 230 228 230 233 237 241 244
208 210 211 214 216 218 220 221 222 223 225 228 228 228 228 228 228 229 229 230 230 231 232 232 233 233 234 234 235 235 236 235 236 236 238 240 243 245 247 245 239 232 228 226 226 226 227 227 227 228 230 234 237 235 232 231 234 238 240 240 238 235 231 229 230 232 236 240 244
209 210 211 214 216 218 220 221 222 224 225 227 227 228 228 229 230 230 230 230 230 231 231 232 233 233 234 235 235 236 237 237 237 237 239 241 243 245 245 243 236 229 226 225 225 226 226 227 228 229 231 233 232 229 227 230 234 238 240 241 239 236 232 230 231 233 237 241 244
210 210 211 214 216 217 219 220 221 223 224 226 227 228 229 230 230 230 231 231 231 230 231 232 233 234 235 236 236 236 237 238 237 238 239 241 243 244 243 239 232 227 224 224 224 225 226 227 229 231 231 231 228 225 226 230 235 238 240 240 239 236 233 231 232 235 238 242 245
210 210 212 213 215 217 218 218 220 221 223 225 227 229 230 230 230 230 231 231 231 231 232 233 235 236 237 238 237 237 237 237 237 238 239 240 241 241 239 235 229 225 223 223 223 224 225 227 229 230 230 228 226 226 229 233 238 240 240 239 238 235 233 231 233 236 240 243 245
209 209 211 212 214 216 216 217 218 220 223 226 228 229 230 230 230 230 230 231 232 233 234 235 237 238 239 239 238 238 237 237 237 237 238 238 238 237 234 230 226 223 222 222 222 223 224 226 227 228 228 227 227 229 233 238 241 242 240 237 234 232 231 232 234 237 240 243 245
209 208 210 211 213 214 215 216 218 220 223 226 228 229 230 230 230 230 230 231 233 234 235 236 238 239 239 239 238 237 237 237 237 236 236 236 235 233 230 227 225 223 222 222 223 223 224 225 226 226 227 228 229 232 237 241 244 242 238 233 229 228 229 232 235 238 241 243 245
208 207 209 211 212 213 214 216 218 221 224 226 228 229 229 229 229 230 231 233 234 235 236 236 238 238 238 238 237 237 237 237 237 237 236 235 233 230 227 224 223 221 221 221 222 224 225 226 226 227 227 229 232 236 241 244 244 240 235 229 224 224 226 230 235 238 241 243 245
207 207 209 211 212 213 215 217 220 222 224 225 226 227 227 229 230 230 232 233 234 235 236 236 237 237 237 237 236 236 236 237 237 237 235 233 229 226 223 221 220 219 220 221 223 225 226 226 226 227 228 231 235 240 244 245 242 237 231 225 221 221 224 229 233 237 240 242 245
207 207 207 208 209 212 215 219 221 223 223 224 224 226 227 229 230 230 231 233 234 235 236 236 236 236 236 236 235 235 235 235 235 234 233 230 226 222 220 219 219 221 222 224 225 225 225 225 226 227 230 235 240 244 246 245 241 236 229 223 219 220 223 228 231 235 238 240 243
208 207 204 201 200 204 212 218 221 221 222 222 224 225 227 228 228 229 230 231 233 235 236 236 236 235 235 234 234 233 233 233 232 231 229 226 224 221 220 220 222 225 226 226 225 224 224 225 226 229 234 239 243 245 245 245 241 236 229 223 221 222 224 228 231 234 236 238 240
208 206 203 198 196 198 204 212 217 220 221 222 222 223 224 225 226 227 229 231 233 235 236 236 235 234 233 232 232 232 231 231 230 228 225 223 222 221 221 223 225 228 229 228 226 225 225 226 229 233 237 242 243 243 243 243 240 236 230 226 224 225 227 230 232 234 236 237 239
209 207 205 202 200 200 203 208 213 217 218 219 219 219 220 221 223 225 228 231 234 237 238 237 235 233 232 231 231 230 229 228 227 226 224 222 222 222 224 226 228 229 230 229 228 228 229 230 233 237 240 241 240 239 239 239 237 234 231 229 228 229 231 233 234 236 237 238 239
210 211 210 210 209 208 209 209 210 212 212 213 213 214 215 217 220 224 228 232 236 239 239 237 234 233 232 232 230 229 228 227 226 225 225 225 225 227 229 230 231 232 232 232 232 232 233 236 239 241 240 237 235 235 236 236 234 232 231 231 231 232 233 234 235 236 237 238 240
212 214 216 217 216 214 211 207 204 204 204 204 206 209 212 215 219 224 230 235 238 239 237 234 232 231 231 231 230 229 228 227 226 227 228 230 231 233 235 236 235 235 235 235 236 237 239 241 243 241 236 231 231 232 234 233 231 231 231 231 232 232 232 233 234 235 237 239 241
208 208 209 210 208 205 199 193 190 191 194 197 201 204 208 212 217 224 232 237 238 237 234 231 230 230 231 231 231 230 229 229 229 231 233 236 237 239 240 239 239 238 238 239 240 241 244 245 244 238 231 228 230 232 232 231 230 230 231 231 231 231 232 233 234 236 239 241 245
190 187 185 184 181 177 173 170 173 180 187 192 197 201 206 211 219 227 234 237 236 234 232 231 232 233 234 235 234 233 233 233 234 236 238 241 242 242 242 242 241 241 241 242 243 245 247 246 240 232 227 228 230 232 232 230 229 230 230 231 232 233 234 236 238 240 243 246 250
173 171 169 168 166 163 161 162 167 174 182 189 196 205 214 221 229 233 235 234 233 232 231 232 234 235 237 238 238 237 236 237 237 239 241 244 245 245 245 245 245 245 245 246 247 248 247 243 234 228 226 228 231 233 232 229 229 229 231 232 234 235 238 240 243 245 248 251 256
176 176 175 174 171 167 165 166 172 180 189 199 211 222 230 237 238 237 235 232 231 230 231 232 233 234 234 235 235 236 237 239 240 242 244 246 247 247 247 248 248 248 249 249 250 249 246 238 230 226 227 229 232 232 231 229 228 230 231 234 236 238 240 243 246 248 251 255 259
188 189 190 190 188 186 184 186 195 208 220 229 236 240 242 243 241 237 234 231 230 230 231 232 232 233 233 234 235 237 239 241 243 244 246 247 248 249 249 250 251 251 251 251 251 248 242 234 228 226 228 231 232 232 230 228 228 230 232 235 237 240 242 245 248 250 253 257 260
198 199 200 201 202 204 211 221 231 239 242 244 243 242 242 241 238 235 233 230 229 229 231 232 233 234 235 236 238 239 241 243 244 245 247 248 249 250 250 251 252 252 251 250 248 244 238 231 228 228 230 232 232 231 230 228 229 231 233 235 238 241 243 246 248 251 254 257 261
205 206 207 209 212 217 226 234 239 241 241 240 239 238 237 235 233 231 229 228 228 228 230 231 233 234 236 237 238 240 241 243 244 245 247 248 249 250 251 251 251 251 249 246 243 239 234 231 229 230 231 232 232 231 230 230 231 233 235 237 239 242 244 246 248 251 254 258 263
217 218 220 222 225 229 233 236 237 237 236 235 234 233 231 227 224 223 222 223 225 227 229 231 233 234 235 236 237 238 240 242 243 245 246 248 249 249 249 249 250 249 246 242 238 235 232 232 231 232 232 232 233 233 233 233 234 235 237 239 240 242 243 245 248 251 255 260 265
223 224 225 227 229 230 231 231 231 233 234 233 231 229 224 219 215 215 216 218 222 225 228 229 231 232 233 234 235 237 238 240 242 244 246 247 247 246 246 246 246 245 242 238 234 231 231 231 232 232 233 234 235 236 237 237 237 238 239 239 240 241 243 245 248 252 256 261 266